Kbely Air Base

Jump to: basic info | weather | frequencies | runways | comments

Related pages: nearby airports | nearby navaids | notams | map

Basic information (top)

Codes: LKKB
Location: lon 50.121399, lat 14.543600, elev 939 ft / 286 m msl
Status: medium_airport

Weather (top)

Current conditions (rec'd 2014/04/24 03:00Z):

LKKB 240300Z 00000KT 5000 BR NSC 09/08 Q1019

Airport forecast (rec'd 2014/04/23 00:00Z):

TAF COR LKKB 222300Z 2300/2324 VRB02KT CAVOK 
      TEMPO 2300/2308 3000 BR SCT008 PROB30 
      TEMPO 2300/2307 0700 FG OVC002 
      BECMG 2307/2309 SCT035 
      TEMPO 2310/2318 35012KT -SHRA SCT025TCU PROB30 
      TEMPO 2313/2317 10016G26KT 5000 -TSRA SCT020CB

Frequencies (top)

Verify before use: may be inaccurate or out of date.

APP: 124.675 MHz (APP)
GCA: 123.3 MHz (PRECISION)
TWR: 120.875 MHz (TWR)

Runways (top)

06/24: 6,562 x 148 ft (2,000 x 45 m) — paved — lighted

Latest comments (top)

No comments yet for Kbely Air Base

More... (top)

See also NOTAMs and nearby airports and navaids, or visit the Kbely Air Base page at the main OurAirports website..